User: anonymous   Login
Location: Dammartin
(48.9032°N, 1.6195°E)
Time: 03:34:44
(UTC+00:00)
Language:

Cosmos 1844 - Orbit

View from above orbital plane
View from above orbital plane
View from above satellite
View from above satellite

Ground track
Ground track

The orbit data is extracted from the following two-line orbital elements,

1 17973U 87041A   23154.75977783  .00000335  00000-0  20007-3 0  9998
2 17973  70.8997   3.8108 0029187  99.3039 261.1385 14.14225954860983
Epoch (UTC): 03 June 2023 18:14:04
Eccentricity: 0.0029187
inclination: 70.8997°
perigee height: 824 km
apogee height: 866 km
right ascension of ascending node: 3.8108°
argument of perigee: 99.3039°
revolutions per day: 14.14225954
mean anomaly at epoch: 261.1385°
orbit number at epoch: 86098

The dashed part of the orbit path shows where the satellite is in the earth's shadow,  

DLR